Location: Mat�lon
(46.2791°N, 7.1028°E)
Time: 05:31:29
(UTC+00:00)

USA 238 DEB - Pass Details

Date: 18 September 2020
Orbit: 1006 x 1206 km, 63.4° (Epoch: 15 October)

Event Time Altitude Azimuth Distance (km) Brightness Sun altitude
Rises 19:32:23 0° 320° (NW) 3,941 7.8 -20.2°
Reaches altitude 10° 19:35:02 10° 321° (NW) 3,008 7.0 -20.6°
Maximum altitude 19:42:16 85° 51° (NE) 1,172 3.8 -21.7°
Enters shadow 19:45:39 37° 138° (SE) 1,760 4.3 -22.2°
